TimeAKST,TemperatureF,Dew PointF,Humidity,Sea Level PressureIn,VisibilityMPH,Wind Direction,Wind SpeedMPH,Gust SpeedMPH,PrecipitationIn,Events,Conditions,WindDirDegrees,DateUTC
12:53 AM,45.0,43.0,93,29.94,9.0,SE,10.4,-,0.01,Rain,Light Rain,130,2013-11-06 09:53:00
1:04 AM,44.6,42.8,93,29.94,10.0,SE,10.4,-,0.00,Rain,Light Rain,130,2013-11-06 10:04:00
1:53 AM,45.0,43.0,93,29.94,7.0,SE,10.4,-,0.03,Rain,Light Rain,140,2013-11-06 10:53:00
2:01 AM,44.6,42.8,93,29.94,8.0,SE,12.7,-,0.00,Rain,Light Rain,130,2013-11-06 11:01:00
2:15 AM,44.6,42.8,93,29.94,10.0,SE,9.2,-,0.00,Rain,Light Rain,130,2013-11-06 11:15:00
2:30 AM,46.4,42.8,87,29.94,10.0,SE,11.5,-,0.01,Rain,Light Rain,130,2013-11-06 11:30:00
3:15 AM,44.6,39.2,81,29.95,6.0,SE,6.9,-,0.08,Rain,Rain,140,2013-11-06 12:15:00
3:53 AM,44.1,41.0,89,29.96,10.0,ESE,6.9,-,0.10,,Overcast,120,2013-11-06 12:53:00
4:53 AM,45.0,42.1,90,29.98,7.0,SE,4.6,-,0.15,Rain,Rain,140,2013-11-06 13:53:00
5:22 AM,44.6,42.8,93,29.97,10.0,SE,5.8,-,0.01,,Overcast,140,2013-11-06 14:22:00
5:53 AM,45.0,42.1,90,29.98,10.0,SE,5.8,-,0.01,Rain,Light Rain,130,2013-11-06 14:53:00
6:02 AM,44.6,42.8,93,29.98,10.0,ESE,6.9,-,0.00,Rain,Light Rain,120,2013-11-06 15:02:00
6:53 AM,45.0,41.0,86,29.99,10.0,ESE,10.4,-,0.02,,Mostly Cloudy,120,2013-11-06 15:53:00
7:53 AM,46.0,43.0,89,30.01,10.0,SSE,8.1,-,0.00,,Overcast,150,2013-11-06 16:53:00
8:53 AM,46.9,44.1,90,30.02,10.0,SSE,10.4,-,0.01,Rain,Light Rain,150,2013-11-06 17:53:00
9:53 AM,48.0,43.0,83,30.03,10.0,SE,11.5,-,0.01,,Overcast,130,2013-11-06 18:53:00
10:53 AM,48.0,44.1,86,30.05,10.0,SE,12.7,-,0.00,,Overcast,130,2013-11-06 19:53:00
11:53 AM,50.0,43.0,77,30.04,10.0,SSE,9.2,-,N/A,,Overcast,150,2013-11-06 20:53:00
12:53 PM,50.0,44.1,80,30.04,10.0,SE,15.0,-,N/A,,Overcast,130,2013-11-06 21:53:00
1:53 PM,48.9,43.0,80,30.04,10.0,SE,15.0,-,N/A,,Mostly Cloudy,130,2013-11-06 22:53:00
2:53 PM,48.0,43.0,83,30.04,10.0,SE,10.4,-,N/A,,Mostly Cloudy,130,2013-11-06 23:53:00
3:53 PM,46.9,43.0,86,30.03,7.0,South,3.5,-,0.01,Rain,Light Rain,180,2013-11-07 00:53:00
4:53 PM,46.0,43.0,89,30.03,10.0,South,4.6,-,0.00,,Overcast,170,2013-11-07 01:53:00
5:53 PM,45.0,43.0,93,30.02,10.0,SSE,8.1,-,0.03,Rain,Light Rain,160,2013-11-07 02:53:00
6:53 PM,46.0,41.0,83,30.02,8.0,Variable,3.5,18.4,0.03,Rain,Light Rain,0,2013-11-07 03:53:00
7:53 PM,44.1,42.1,93,30.02,10.0,Calm,Calm,-,0.02,Rain,Light Rain,0,2013-11-07 04:53:00
8:53 PM,45.0,39.9,82,30.01,10.0,SSE,6.9,-,0.00,,Overcast,160,2013-11-07 05:53:00
9:53 PM,44.1,41.0,89,30.01,10.0,SSW,4.6,-,N/A,,Overcast,200,2013-11-07 06:53:00
10:53 PM,44.1,41.0,89,29.99,10.0,South,3.5,-,N/A,,Overcast,190,2013-11-07 07:53:00
11:53 PM,44.1,41.0,89,29.97,10.0,South,4.6,-,N/A,,Overcast,180,2013-11-07 08:53:00